User: anonymous
Location: Caltech
(34.1382°N, 118.1253°W)
Time: 08:34:59
(UTC-07:00)
Language:

SO-67 - Orbit

View from above orbital plane
View from above orbital plane
View from above satellite
View from above satellite

Ground track
Ground track

The orbit data is extracted from the following two-line orbital elements,

1 35870U 09049F   14260.12734692  .00010644  00000-0  32297-3 0  5124
2 35870 097.1582 278.5411 0003636 113.1340 318.9434 15.34270649278141
Epoch (UTC): 17 September 2014 03:03:22
Eccentricity: 0.0003636
inclination: 97.1582°
perigee height: 460 km
apogee height: 465 km
right ascension of ascending node: 278.5411°
argument of perigee: 113.1340°
revolutions per day: 15.34270649
mean anomaly at epoch: 318.9434°
orbit number at epoch: 27814

The dashed part of the orbit path shows where the satellite is in the earth's shadow,  

DLR